Location: Newark
(25.4297°S, 49.2719°W)
Time: 21:42:11
(UTC+00:00)

Tianhe-1 - Visible Passes

Search period start: 23 June 2021 00:00
Search period end: 03 July 2021 00:00
Orbit: 375 x 386 km, 41.5° (Epoch: 23 June)

Date Brightness Start Highest point End Pass type
(mag) Time Alt. Az. Time Alt. Az. Time Alt. Az.
23 Jun 4.0 22:22:34 10° SW 22:22:41 11° SW 22:22:41 11° SW visible
24 Jun 2.8 21:22:01 10° SSW 21:24:17 18° SSE 21:25:11 16° SE visible
25 Jun 0.9 21:56:57 10° SW 22:00:05 69° SSE 22:00:05 69° SSE visible
26 Jun 3.6 22:33:08 10° W 22:35:21 20° NW 22:35:21 20° NW visible
27 Jun 1.9 21:31:29 10° WSW 21:34:34 50° NW 21:37:36 10° NE visible
29 Jun 3.8 21:06:18 10° W 21:08:51 22° NW 21:11:22 10° NNE visible
